Flight Information

DEPARTURE
AMARILLO, TX
Elevation:
3606
Runways:
13/31 - 7901x150 - CONC-G
4/22 - 13502x200 - CONC-G
ATIS:
118.85
Clearance Delivery:
121.65
Ground:
121.9
Tower:
AMARILLO TOWER 118.3
DESTINATION
,
Elevation:
TPA:
1000 (est.)


5972.2 NM83° True-9° Var73° HDG

Flight Plan:
(click to file on line)

1. Type
2. Aircraft Identification
3. Aircraft Type / Special Equipment
4. True Airspeed
kts
5. Departure Airport
(ICAO code)
6. Arriving Airport
(ICAO code)
7. Cruising Altitude
ft
8. Alternate Airport
(ICAO code)
9. Route of Flight
10. Remarks


00:00:00 Departure ATIS: Destination ATIS:

Clearance Limit:
Route:
Altitude: Expect in minutes
Frequency:
Transponder: (7500 Hijack / 7600 Lost Comms / 7700 Emergency)


KAMA 101553Z 29009KT 10SM CLR 34/13 A3007 RMK AO2 SLP116 T03390128
Time: 2020-07-10T15:53:00Z
1594398281
Winds: 290 @ 9 kts
Visibility: 10.0 sm
Clouds (AGL): CLR
Temperature: 33.9 C
Dew Point: 12.8 C
Pressure: 30.070866 in Hgbr


Notes:

Data extracted from FAA Digital Chart Supplement. Effective: 0901Z Thursday, May 21, 2020 to 0901Z Thursday, Jul 16, 2020
Current ATIS data is provided courtisy of PilotEdge.